{"data":{"norad_id":54828,"intl_designator":"2022-177J","name":"STARLINK-5381","alt_names":[],"object_type":"PAYLOAD","status":"ACTIVE","operator":null,"country":"US","launch_date":"2022-12-28","launch_site_code":"AFETR","launch_vehicle":null,"mission":null,"orbit_class":"UNKNOWN","rcs_meters":null,"size_class":null,"mass_kg":null,"dimensions":null,"purposes":["comms"],"wikipedia_slug":null,"has_3d_model":false,"image_url":null,"decayed_at":null,"tle_current":{"epoch":"2026-09-20T21:16:38.353728Z","epoch_age_seconds":59303,"freshness":"FRESH","line1":"1 54828U 22177J   26263.88655502  .00000135  00000+0  14430-4 0  9998","line2":"2 54828  43.0020 113.9039 0001100 246.4262 113.6475 15.27573841206774","mean_motion":15.27573841,"eccentricity":0.00011,"inclination_deg":43.002,"raan_deg":113.9039,"arg_perigee_deg":246.4262,"mean_anomaly_deg":113.6475,"bstar":1.443e-5,"rev_number":20677,"period_min":94.267128786215,"perigee_km":482.31280586409,"apogee_km":483.82227086253,"semimajor_km":6861.2045383633,"source":"CELESTRAK","updated_at":"2026-09-21T09:00:33.134004Z"}}}